Location: Fontevrault
(47.1823°N, 0.0493°E)
Time: 04:35:19
(UTC+00:00)

Cosmos 1459 Rocket - Pass Details

Date: 21 October 2021
Orbit: 936 x 1000 km, 83.0° (Epoch: 01 December)

Event Time Altitude Azimuth Distance (km) Brightness Sun altitude
Rises 05:19:17 0° 1° (N) 3,617 7.0 -12.1°
Reaches altitude 10° 05:22:38 10° 20° (NNE) 2,662 6.5 -11.6°
Maximum altitude 05:26:46 19° 63° (ENE) 2,093 6.6 -10.9°
Drops below altitude 10° 05:30:53 10° 107° (ESE) 2,649 7.8 -10.2°
Sets 05:34:11 0° 125° (SE) 3,592 8.1 -9.6°
